Weather History for KCRP - April, 2011

Change the Weather History Date:

Monday, April 4, 2011

  Actual Average Record
Temperature  
Mean Temperature 79 °F 70 °F  
Max Temperature 96 °F 80 °F 96 °F (2011)
Min Temperature 62 °F 60 °F 39 °F (1987)
Degree Days  
Heating Degree Days 0 1  
Month to date heating degree days 0 4  
Since 1 July heating degree days 933 885  
Cooling Degree Days 14 6  
Month to date cooling degree days 47 24  
Year to date cooling degree days 313 215  
Growing Degree Days 30 (Base 50)    
Moisture  
Dew Point 60 °F    
Average Humidity 57    
Maximum Humidity 93    
Minimum Humidity 21    
Precipitation  
Precipitation 0.00 in 0.05 in 0.94 in (1971)
Month to date precipitation 0.00 0.21  
Year to date precipitation 4.43 5.57  
Snow  
Snow 0.00 in - - ()
Month to date snowfall 0.0  
Since 1 July snowfall 0.0  
Snow Depth 0.00 in    
Sea Level Pressure  
Sea Level Pressure 29.79 in    
Wind  
Wind Speed 17 mph (SSE)    
Max Wind Speed 36 mph    
Max Gust Speed 44 mph    
Visibility 9 miles    
Events      
T = Trace of Precipitation, MM = Missing Value Source: NWS Daily Summary

Daily Weather History Graph

Daily Weather History Graph

Search for Another Location

Airport or City:

Trip Planner

Search our weather history database for the weather conditions in past years. The results will help you decide how hot, cold, wet, or windy it might be!

Date:

Astronomy

Apr. 04, 2011 Rise Set
Actual Time 7:17 AM CDT 7:49 PM CDT
Civil Twilight 6:53 AM CDT 8:12 PM CDT
Nautical Twilight 6:26 AM CDT 8:40 PM CDT
Astronomical Twilight 5:58 AM CDT 9:08 PM CDT
Moon 7:34 AM CDT (4/4) 9:01 PM CDT (4/4)
Length of Visible Light 13h 19m
Length of Day
12h 31m
New Moon, 1% of the Moon is Illuminated
Apr 4
New Moon
Apr 11
First Quarter
Apr 17
Full
Apr 24
Last Quarter
May 3
New

Hourly Weather History & Observations

Time (CDT) Temp. Heat Index Dew Point Humidity Pressure Visibility Wind Dir Wind Speed Gust Speed Precip Events Conditions
12:18 AM 73.4 °F - 71.6 °F 94% 29.72 in 10.0 mi SSE 20.7 mph 28.8 mph N/A   Mostly Cloudy
12:47 AM 73.4 °F - 71.6 °F 94% 29.71 in 10.0 mi SSE 20.7 mph 29.9 mph N/A   Scattered Clouds
12:51 AM 73.9 °F - 71.1 °F 91% 29.71 in 10.0 mi SSE 21.9 mph 29.9 mph N/A   Scattered Clouds
1:48 AM 73.4 °F - 71.6 °F 94% 29.70 in 10.0 mi South 21.9 mph 29.9 mph N/A   Mostly Cloudy
1:51 AM 73.9 °F - 71.1 °F 91% 29.70 in 10.0 mi South 19.6 mph 29.9 mph N/A   Mostly Cloudy
2:33 AM 73.4 °F - 71.6 °F 94% 29.69 in 10.0 mi South 19.6 mph 29.9 mph N/A   Scattered Clouds
2:40 AM 73.4 °F - 71.6 °F 94% 29.68 in 10.0 mi South 20.7 mph 27.6 mph N/A   Mostly Cloudy
2:51 AM 73.9 °F - 71.1 °F 91% 29.68 in 10.0 mi South 21.9 mph 31.1 mph N/A   Mostly Cloudy
3:51 AM 73.9 °F - 72.0 °F 93% 29.66 in 10.0 mi South 17.3 mph 26.5 mph N/A   Mostly Cloudy
4:51 AM 73.9 °F - 72.0 °F 93% 29.65 in 10.0 mi South 13.8 mph - N/A   Scattered Clouds
5:51 AM 73.0 °F - 71.1 °F 93% 29.65 in 8.0 mi South 13.8 mph 20.7 mph N/A   Partly Cloudy
6:51 AM 73.0 °F - 71.1 °F 93% 29.64 in 4.0 mi South 13.8 mph - N/A   Partly Cloudy
7:51 AM 73.0 °F - 71.1 °F 93% 29.64 in 3.0 mi South 12.7 mph 39.1 mph N/A   Partly Cloudy
8:51 AM 77.0 °F - 71.1 °F 82% 29.74 in 6.0 mi West 15.0 mph 18.4 mph N/A   Haze
9:51 AM 80.1 °F 82.9 °F 69.1 °F 69% 29.76 in 10.0 mi West 5.8 mph - N/A   Scattered Clouds
10:51 AM 82.9 °F 85.8 °F 68.0 °F 60% 29.77 in 10.0 mi West 10.4 mph - N/A   Partly Cloudy
11:51 AM 87.1 °F 90.6 °F 68.0 °F 53% 29.77 in 10.0 mi Variable 5.8 mph - N/A   Partly Cloudy
12:51 PM 88.0 °F 92.9 °F 70.0 °F 55% 29.78 in 10.0 mi NNW 5.8 mph - N/A   Partly Cloudy
1:51 PM 93.0 °F 97.4 °F 68.0 °F 44% 29.78 in 10.0 mi NNW 21.9 mph 32.2 mph N/A   Scattered Clouds
2:51 PM 89.1 °F 88.0 °F 57.9 °F 35% 29.82 in 10.0 mi North 29.9 mph 36.8 mph N/A   Scattered Clouds
3:51 PM 84.9 °F - 51.1 °F 31% 29.85 in 10.0 mi North 29.9 mph 40.3 mph N/A   Clear
4:51 PM 84.0 °F - 43.0 °F 24% 29.86 in 10.0 mi North 27.6 mph 38.0 mph N/A   Partly Cloudy
5:51 PM 80.1 °F - 37.9 °F 22% 29.89 in 10.0 mi North 25.3 mph 35.7 mph N/A   Clear
6:51 PM 75.9 °F - 35.1 °F 23% 29.92 in 10.0 mi North 24.2 mph 32.2 mph N/A   Clear
7:51 PM 73.0 °F - 37.0 °F 27% 29.94 in 10.0 mi North 18.4 mph - N/A   Clear
8:51 PM 71.1 °F - 36.0 °F 28% 29.98 in 10.0 mi North 18.4 mph - N/A   Clear
9:51 PM 68.0 °F - 36.0 °F 31% 30.02 in 10.0 mi NNE 15.0 mph - N/A   Clear
10:51 PM 66.0 °F - 36.0 °F 33% 30.06 in 10.0 mi North 13.8 mph - N/A   Clear
11:51 PM 66.0 °F - 33.1 °F 29% 30.10 in 10.0 mi NNE 24.2 mph 33.4 mph N/A   Clear